sat.trackr.live / text

‹ back to catalog

STARLINK-35002

NORAD 65291 · 2025-184U

PAYLOAD ACTIVE UNKNOWN

§ Identity

Operator
Country
US
Launch date
2025-08-22
Launch site
AFWTR
Launch vehicle
Mass (kg)
RCS (m²)

Purposes: comms

External: N2YO · Heavens-Above · Gunter

§ Orbital elements

Epoch: 2026-05-25T02:24:09.662112Z

Period
95.64 min
Inclination
97.4486°
Eccentricity
0.0001438
Mean motion
15.05649797 rev/d
Perigee alt
548.5 km
Apogee alt
550.5 km
Semi-major
6,927.6 km
B*
1.7469e-4
RAAN
197.5363°
Arg perigee
130.0788°
Mean anomaly
230.0565°
Rev number
4,279

§ Raw data

STARLINK-350021 65291U 25184U   26145.10011183  .00002463  00000+0  17469-3 0  99902 65291  97.4486 197.5363 0001438 130.0788 230.0565 15.05649797 42796

JSON: /api/v1/satellites/65291 · /tle

For live sub-satellite position, see the globe view (requires WebGL).

§ Visibility from observer

Set your observer location to see the next 7 days of passes ≥ 10°. The values pass through the URL so the page stays shareable.

No JS? Fill the form by hand. The geolocation button needs JavaScript.